Probability
0 0 0 0 0 0 0 0 0 0 0 0 0 0 0 0 0 0 0 0 0 0 0 0 0 0 0 0 0 0 0 0 0 0 0 0 0 0 0 0 0 0 0 0
0 0 0 0 0 0 0 0 0 0 0 0 0 0 0 0 0 0 0 0 0 0 0 0 0 0 0 0 0 0 0 0 0 0 0 0 0 0 0 0 0 0 0 0
0 0 0 0 0 0 0 0 0 0 0 0 0 0 0 0 0 0 0 0 0 0 0 0 0 0 0 0 0 0 0 0 0 0 0 0 0 0 0 0 0 0 0 0
0 0 0 0 0 0 0 0 0 0 0 0 0 0 0 0 0 0 0 0 0 0 0 0 0 0 0 0 0 0 0 0 0 0 0 0 0 0 0 0 0 0 0 0
0 0 0 0 0 0 0 0 0 0 0 0 0 0 0 0 0 0 0 0 0 0 0 0 0 0 0 0 0 0 0 0 0 0 0 0 0 0 0 0 0 0 0 0
0 0 0 0 0 0 0 0 0 0 0 0 0 0 0 0 0 0 0 0 0 0 0 0 0 0 0 0 0 0 0 0 0 0 0 0 0 0 0 0 0 0 0 0
0 0 0 0 0 0 0 0 0 0 0 0 0 0 0 0 0 0 0 0 0 0 0 0 0 0 0 0 0 0 0 0 0 0 0 0 0 0 0 0 0 0 0 0
0 0 0 0 0 0 0 0 0 0 0 0 0 0 0 0 0 0 0 0 0 0 0 0 0 0 0 0 0 0 0 0 0 0 0 0 0 0 0 0 0 0 0 0
0 0 0 0 0 0 0 0 0 0 0 0 0 0 0 0 0 0 0 0 0 0 0 0 0 0 0 0 0 0 0 0 0 0 0 0 0 0 0 0 0 0 0 0
0 0 0 0 0 0 0 0 0 0 0 0 0 0 0 0 0 0 0 0 0 0 0 0 0 0 0 0 0 0 0 0 0 0 0 0 0 0 0 0 0 0 0 0
0 0 0 0 0 0 0 0 0 0 0 0 0 0 0 0 0 0 0 0 0 0 0 0 0 0 0 0 0 0 0 0 0 0 0 0 0 0 0 0 0 0 0 0
0 0 0 0 0 0 0 0 0 0 0 0 0 0 0 0 0 0 0 0 0 0 0 0 0 0 0 0 0 0 0 0 0 0 0 0 0 0 0 0 0 0 0 0
0 0 0 0 0 0 0 0 0 0 0 0 0 0 0 0 0 0 0 0 0 0 0 0 0 0 0 0 0 0 0 0 0 0 0 0 0 0 0 0 0 0 0 0
0 0 0 0 0 0 0 0 0 0 0 0 0 0 0 0 0 0 0 0 0 0 0 0 0 0 0 0 0 0 0 0 0 0 0 0 0 0 0 0 0 0 0 0
0 0 0 0 0 0 0 0 0 0 0 0 0 0 0 0 0 0 0 0 0 0 0 0 0 0 0 0 0 0 0 0 0 0 0 0 0 0 0 0 0 0 0 0
0 0 0 0 0 0 0 0 0 0 0 0 0 0 0 0 0 0 0 0 0 0 0 0 0 0 0 0 0 0 0 0 0 0 0 0 0 0 0 0 0 0 0 0
0 0 0 0 0 0 0 0 0 0 0 0 0 0 0 0 0 0 0 0 0 0 0 0 0 0 0 0 0 0 0 0 0 0 0 0 0 0 0 0 0 0 0 0
0 0 0 0 0 0 0 0 0 0 0 0 0 0 0 0 0 0 0 0 0 0 0 0 0 0 0 0 0 0 0 0 0 0 0 0 0 0 0 0 0 0 0 0
0 0 0 0 0 0 0 0 0 0 0 0 0 0 0 0 0 0 0 0 0 0 0 0 0 0 0 0 0 0 0 0 0 0 0 0 0 0 0 0 0 0 0 0
0 0 0 0 0 0 0 0 0 0 0 0 0 0 0 0 0 0 0 0 0 0 0 0 0 0 0 0 0 0 0 0 0 0 0 0 0 0 0 0 0 0 0 0
0 0 0 0 0 0 0 0 0 0 0 0 0 0 0 0 0 0 0 0 0 0 0 0 0 0 0 0 0 0 0 0 0 0 0 0 0 0 0 0 0 0 0 0
0 0 0 0 0 0 0 0 0 0 0 0 0 0 0 0 0 0 0 0 0 0 0 0 0 0 0 0 0 0 0 0 0 0 0 0 0 0 0 0 0 0 0 0
0 0 0 0 0 0 0 0 0 0 0 0 0 0 0 0 0 0 0 0 0 0 0 0 0 0 0 0 0 0 0 0 0 0 0 0 0 0 0 0 0 0 0 0
0 0 0 0 0 0 0 0 0 0 0 0 0 0 0 0 0 0 0 0 0 0 0 0 0 0 0 0 0 0 0 0 0 0 0 0 0 0 0 0 0 0 0 0
0 0 0 0 0 0 0 0 0 0 0 0 0 0 0 0 0 0 0 0 0 0 0 0 0 0 0 0 0 0 0 0 0 0 0 0 0 0 0 0 0 0 0 0
0 0 0 0 0 0 0 0 0 0 0 0 0 0 0 0 0 0 0 0 0 0 0 0 0 0 0 0 0 0 0 0 0 0 0 0 0 0 0 0 0 0 0 0
0 0 0 0 0 0 0 0 0 0 0 0 0 0 0 0 0 0 0 0 0 0 0 0 0 0 0 0 0 0 0 0 0 0 0 0 0 0 0 0 0 0 0 0
Height
5835 5831 5829 5827 5824 5821 5818 5814 5811 5807 5803 5799 5795 5791 5787 5783 5779 5775 5771 5767 5763 5759 5754 5751 5747 5743 5739 5736 5733 5730 5727 5725 5724 5722 5720 5718 5716 5713 5711 5708 5705 5701 5698 5695
5831 5828 5825 5822 5819 5816 5812 5808 5804 5799 5795 5791 5786 5782 5777 5772 5768 5763 5759 5754 5749 5745 5740 5735 5731 5727 5724 5720 5717 5714 5712 5710 5709 5707 5706 5705 5704 5702 5700 5698 5696 5693 5691 5688
5827 5823 5819 5816 5813 5808 5804 5800 5796 5791 5787 5781 5776 5771 5765 5760 5755 5749 5744 5739 5733 5728 5723 5718 5714 5709 5706 5703 5699 5696 5694 5692 5691 5691 5691 5690 5690 5690 5689 5688 5686 5685 5683 5681
5820 5818 5813 5812 5806 5801 5796 5791 5786 5780 5775 5769 5764 5759 5753 5746 5740 5734 5728 5722 5716 5710 5704 5699 5694 5689 5686 5682 5679 5675 5673 5671 5670 5671 5672 5673 5674 5675 5675 5676 5675 5675 5674 5673
5814 5810 5806 5801 5796 5791 5786 5780 5774 5769 5763 5757 5751 5747 5741 5732 5725 5718 5711 5704 5697 5690 5683 5677 5671 5666 5662 5659 5655 5652 5650 5648 5647 5648 5650 5652 5655 5657 5660 5662 5663 5664 5664 5664
5808 5803 5798 5794 5787 5781 5776 5769 5764 5757 5751 5745 5738 5731 5726 5715 5706 5698 5689 5680 5672 5665 5658 5652 5645 5639 5636 5633 5629 5626 5624 5623 5623 5623 5626 5629 5634 5638 5642 5646 5649 5651 5654 5655
5802 5796 5790 5785 5778 5773 5767 5762 5753 5745 5737 5728 5719 5711 5702 5692 5682 5673 5664 5655 5647 5639 5633 5626 5619 5614 5610 5607 5604 5602 5600 5600 5599 5600 5602 5606 5611 5617 5624 5630 5634 5638 5642 5645
5795 5789 5785 5777 5770 5764 5758 5748 5739 5730 5721 5711 5701 5690 5679 5668 5658 5647 5638 5629 5620 5612 5607 5601 5595 5589 5587 5585 5583 5580 5579 5579 5579 5579 5580 5583 5588 5596 5604 5612 5619 5625 5630 5634
5788 5783 5775 5767 5760 5752 5744 5735 5725 5714 5703 5691 5679 5667 5655 5644 5633 5623 5614 5605 5598 5591 5587 5583 5578 5573 5571 5569 5567 5565 5564 5563 5562 5562 5562 5563 5568 5576 5585 5594 5603 5611 5618 5624
5780 5774 5766 5758 5750 5740 5730 5720 5708 5695 5682 5669 5655 5643 5631 5621 5611 5602 5594 5587 5581 5575 5572 5569 5566 5562 5559 5556 5554 5552 5550 5549 5548 5547 5547 5546 5550 5558 5567 5578 5588 5598 5607 5614
5772 5765 5757 5749 5738 5728 5716 5704 5690 5677 5662 5648 5634 5622 5611 5602 5594 5587 5580 5575 5569 5564 5561 5558 5555 5551 5548 5545 5542 5540 5538 5536 5535 5534 5533 5533 5536 5542 5552 5562 5574 5585 5596 5604
5764 5755 5746 5737 5726 5713 5700 5687 5673 5658 5645 5631 5616 5605 5596 5589 5582 5576 5570 5565 5560 5555 5551 5548 5544 5541 5537 5534 5530 5528 5526 5525 5523 5522 5521 5521 5523 5530 5539 5550 5562 5573 5584 5594
5755 5745 5735 5724 5712 5699 5685 5671 5655 5640 5625 5613 5604 5594 5585 5578 5573 5567 5562 5556 5551 5546 5541 5537 5533 5529 5525 5521 5518 5516 5514 5513 5511 5510 5510 5511 5514 5521 5530 5541 5551 5564 5575 5585
5744 5734 5724 5712 5699 5685 5669 5653 5638 5625 5612 5601 5592 5585 5578 5571 5565 5560 5554 5547 5541 5535 5530 5525 5519 5515 5511 5507 5504 5502 5501 5500 5500 5500 5500 5502 5507 5513 5522 5533 5544 5556 5567 5578
5736 5724 5712 5699 5684 5669 5652 5637 5623 5612 5601 5593 5585 5578 5571 5564 5558 5551 5544 5537 5529 5523 5516 5510 5505 5501 5496 5493 5490 5489 5488 5488 5489 5490 5492 5495 5501 5508 5517 5527 5538 5550 5561 5572
5726 5714 5699 5684 5669 5653 5637 5622 5610 5601 5592 5585 5578 5571 5564 5556 5548 5540 5532 5524 5515 5508 5501 5495 5489 5485 5481 5478 5477 5476 5476 5477 5479 5481 5484 5490 5497 5504 5513 5524 5534 5546 5557 5568
5713 5701 5686 5671 5655 5639 5624 5611 5601 5592 5585 5578 5571 5563 5555 5547 5538 5529 5520 5511 5501 5493 5486 5479 5473 5469 5466 5464 5464 5464 5465 5467 5470 5474 5479 5485 5493 5501 5511 5521 5531 5543 5553 5564
5700 5686 5671 5656 5640 5627 5615 5605 5595 5587 5579 5572 5564 5555 5546 5536 5526 5516 5506 5496 5487 5479 5471 5464 5458 5454 5452 5451 5452 5453 5455 5459 5463 5468 5475 5482 5491 5499 5509 5519 5529 5540 5550 5561
5690 5676 5661 5646 5631 5618 5607 5598 5590 5582 5574 5565 5556 5546 5536 5525 5514 5503 5493 5483 5474 5466 5459 5451 5445 5441 5439 5439 5441 5444 5447 5452 5458 5464 5472 5480 5490 5499 5509 5519 5529 5539 5549 5559
5682 5667 5652 5638 5624 5611 5601 5593 5585 5577 5568 5559 5549 5538 5527 5516 5504 5493 5482 5472 5462 5453 5447 5440 5434 5430 5428 5429 5432 5437 5441 5448 5455 5463 5471 5480 5490 5499 5509 5519 5529 5539 5549 5559
5673 5659 5644 5631 5618 5607 5596 5588 5580 5572 5563 5552 5541 5530 5519 5508 5496 5484 5473 5463 5454 5445 5437 5430 5425 5422 5421 5423 5426 5432 5438 5446 5454 5463 5472 5481 5491 5501 5510 5520 5530 5539 5549 5558
5666 5652 5638 5624 5613 5602 5593 5584 5576 5567 5558 5547 5536 5524 5513 5502 5490 5479 5467 5456 5447 5438 5430 5425 5421 5419 5418 5420 5425 5431 5439 5447 5456 5465 5474 5484 5493 5503 5512 5522 5531 5541 5550 5558
5658 5645 5631 5618 5608 5598 5589 5581 5572 5563 5553 5543 5532 5520 5509 5497 5485 5474 5465 5455 5445 5437 5430 5425 5422 5421 5421 5424 5428 5435 5442 5451 5460 5469 5478 5488 5497 5507 5516 5525 5534 5543 5551 5559
5652 5639 5626 5614 5603 5594 5586 5578 5570 5561 5551 5540 5529 5518 5507 5496 5486 5476 5465 5456 5448 5441 5436 5432 5429 5429 5430 5432 5437 5443 5450 5458 5466 5475 5484 5493 5502 5511 5520 5528 5536 5544 5552 5560
5647 5634 5622 5610 5600 5592 5583 5576 5568 5559 5550 5540 5529 5518 5508 5498 5489 5480 5470 5462 5455 5450 5445 5442 5440 5440 5441 5444 5448 5453 5460 5467 5475 5483 5491 5499 5508 5516 5524 5532 5539 5547 5554 5561
5642 5629 5617 5605 5596 5588 5581 5573 5566 5558 5549 5540 5530 5520 5511 5502 5494 5486 5478 5471 5466 5461 5457 5454 5453 5453 5454 5457 5460 5465 5471 5477 5484 5491 5498 5506 5513 5521 5528 5535 5542 5548 5555 5561
5637 5625 5614 5604 5595 5587 5580 5572 5565 5557 5549 5540 5531 5523 5515 5507 5500 5493 5487 5481 5476 5472 5469 5467 5466 5466 5467 5469 5473 5477 5482 5487 5493 5499 5505 5512 5519 5526 5532 5538 5544 5550 5556 5562
Wind_Speed
18 20 21 21 21 24 26 29 32 33 34 36 37 39 40 42 43 45 46 48 51 53 54 56 58 59 60 59 59 58 56 54 52 50 48 46 43 41 40 37 36 34 33 31
19 22 23 24 25 26 28 30 33 34 35 36 38 40 42 44 46 48 51 53 56 57 59 61 62 63 64 63 63 61 61 60 58 55 52 49 46 43 41 38 36 33 32 30
22 24 26 26 28 31 32 33 35 37 38 40 41 43 45 48 50 53 56 59 61 63 64 65 66 66 66 68 69 68 68 67 64 60 56 52 48 45 42 39 36 33 31 29
26 27 30 31 32 33 36 37 39 41 42 43 43 46 49 52 55 57 60 63 65 67 69 71 73 74 75 76 76 76 75 72 69 65 60 56 52 48 44 40 37 34 31 29
30 32 35 36 38 39 41 42 43 43 44 46 49 51 54 58 62 65 68 71 74 76 79 80 81 82 81 79 79 78 77 74 70 67 63 58 54 50 46 42 39 34 31 29
34 36 38 40 41 42 43 44 45 47 50 54 57 60 62 66 69 72 74 76 78 80 81 82 83 83 82 79 77 75 72 69 65 62 59 56 53 49 46 42 40 36 32 29
34 36 39 40 41 43 45 47 50 54 57 60 63 66 69 72 75 77 79 80 80 81 80 80 78 77 74 69 65 62 59 57 55 53 53 52 51 49 46 43 40 37 33 29
35 37 39 41 43 45 48 51 55 59 63 66 70 73 76 78 79 79 79 77 75 74 71 68 64 61 57 53 50 48 46 44 42 42 44 46 47 47 46 44 41 37 33 30
37 39 41 43 46 50 54 57 61 65 69 73 76 78 79 78 76 73 69 66 63 60 56 50 47 45 43 41 39 39 38 37 38 38 39 41 44 46 45 44 42 38 34 31
39 41 44 48 52 56 60 64 68 72 76 78 80 79 76 71 65 60 56 53 48 44 40 37 37 37 37 36 36 36 36 35 35 35 35 36 39 44 46 45 42 38 34 31
43 46 49 53 57 61 66 70 73 76 77 77 74 69 64 58 53 49 45 41 39 37 35 34 35 35 35 36 37 36 35 34 34 33 33 33 35 42 46 46 42 39 36 32
48 51 55 58 63 67 71 74 77 77 75 69 63 58 52 47 43 40 37 36 36 36 36 36 36 36 36 38 38 37 36 34 34 32 30 28 32 39 45 46 42 39 36 33
52 56 59 63 67 71 74 75 75 71 65 59 52 47 43 40 38 37 36 37 37 38 38 39 40 40 40 40 40 39 37 35 33 30 28 25 29 37 44 45 41 39 38 35
56 60 63 66 70 73 74 72 68 61 54 48 43 39 38 37 37 37 38 40 41 42 42 43 43 42 41 41 40 39 37 33 30 27 25 23 27 35 40 43 42 41 39 37
58 62 66 69 72 73 72 68 61 53 45 40 37 36 37 38 39 40 42 44 45 46 46 45 44 42 41 40 38 36 33 30 26 24 22 22 28 34 39 42 41 41 40 38
60 64 68 72 74 73 69 63 55 46 40 36 36 38 40 42 44 46 47 48 48 48 47 45 43 41 39 37 35 32 28 25 23 21 21 24 30 34 39 41 40 41 41 39
64 68 72 74 75 72 65 57 49 42 39 38 39 42 44 47 49 50 51 50 49 48 46 44 41 39 37 34 31 27 24 21 20 19 22 25 31 34 39 39 41 41 40 39
67 71 74 75 74 67 58 50 44 41 40 41 43 46 49 51 53 53 52 50 47 45 43 41 38 35 32 28 25 23 21 19 18 19 23 27 33 37 40 40 41 41 41 40
69 72 74 72 67 61 54 47 43 42 42 45 48 51 53 53 52 52 50 48 45 43 40 38 35 31 26 23 20 18 17 17 19 20 25 29 34 37 39 39 39 39 40 38
70 72 72 69 62 56 50 45 43 43 45 48 50 52 52 51 51 50 48 46 43 41 38 35 31 25 20 16 15 15 16 19 21 23 27 31 35 37 38 37 38 40 39 37
70 72 71 67 59 52 47 44 43 44 47 49 51 52 51 50 49 47 45 42 39 36 33 28 23 17 12 10 12 14 18 22 25 27 30 34 37 38 38 38 39 39 38 36
70 72 70 65 56 48 44 43 43 45 48 48 49 49 49 48 47 44 41 39 35 31 26 20 15 9 3 6 12 18 23 26 28 30 33 35 37 38 38 38 38 37 36 35
70 70 68 62 54 46 43 42 43 45 46 47 48 48 47 47 45 42 39 35 31 27 23 17 11 7 7 11 16 22 25 28 31 33 35 36 37 39 38 37 36 36 35 33
69 69 65 59 51 44 41 41 42 43 45 46 46 45 45 42 41 40 37 33 28 25 22 18 14 12 14 17 21 25 28 31 33 34 35 36 38 38 36 35 35 34 33 32
68 66 62 56 47 42 40 39 40 42 43 43 43 42 41 39 38 38 34 31 28 24 21 19 18 17 18 21 25 27 30 33 34 34 35 36 37 36 34 33 32 31 31 30
66 65 60 54 47 42 39 38 39 41 42 41 40 39 38 37 36 34 31 29 27 24 21 20 20 20 22 24 27 29 30 31 31 32 33 34 34 33 31 30 30 30 29 28
64 62 56 49 43 39 37 36 38 40 41 40 38 37 36 35 33 31 30 28 24 22 21 20 21 22 23 25 27 28 27 27 28 29 30 31 30 29 28 28 28 27 27 26
Wind_Direction
315 310 310 308 302 298 296 296 296 297 295 294 293 292 291 290 290 289 289 289 289 289 289 290 291 292 292 293 294 294 295 295 294 295 295 295 294 295 297 299 302 304 306 307
315 309 307 305 301 298 295 294 293 293 293 292 291 290 289 289 289 289 288 288 287 286 287 287 288 288 288 288 288 289 291 293 292 291 291 290 290 289 291 293 295 298 301 301
313 309 307 305 304 301 298 297 297 297 296 295 294 293 292 291 290 289 289 288 286 284 284 283 283 284 283 284 285 286 288 289 288 287 286 285 284 283 284 286 287 290 293 295
312 310 308 307 305 304 303 302 300 299 299 298 297 295 293 289 287 287 286 285 283 281 281 282 283 284 284 283 284 284 285 286 285 284 282 280 278 277 277 277 278 281 285 286
313 312 311 310 310 310 308 306 305 305 302 298 295 293 289 287 286 285 284 283 283 283 283 283 284 284 284 284 284 284 284 284 282 280 278 275 272 270 269 269 269 271 275 277
312 312 310 310 311 311 310 308 306 302 299 297 296 294 292 290 289 288 288 287 287 287 287 287 287 286 286 286 285 284 284 282 280 277 274 270 265 261 259 259 259 261 265 267
313 312 310 312 312 312 308 306 305 303 303 302 300 299 297 295 294 292 292 291 290 290 289 289 289 288 288 288 287 286 284 283 280 275 270 264 257 251 248 247 249 251 255 256
316 315 314 315 313 312 310 309 308 307 305 304 302 301 299 298 297 296 295 294 294 293 292 292 292 291 291 290 289 287 286 284 281 278 272 262 251 243 239 236 239 242 245 246
321 319 319 319 317 316 314 313 311 309 308 306 304 303 302 302 301 300 299 298 297 297 296 295 294 293 293 292 289 288 287 286 283 280 278 266 249 236 230 228 229 234 237 237
325 324 323 321 320 319 317 315 313 312 310 309 308 307 307 306 306 304 303 302 301 300 298 297 295 295 294 293 291 291 290 288 286 282 279 269 249 232 222 218 222 226 228 228
327 326 325 323 322 320 318 316 314 313 312 312 311 311 311 310 309 308 307 306 304 302 300 299 297 295 294 292 291 292 291 289 288 284 279 270 248 227 217 212 215 219 218 218
328 328 326 325 323 321 320 318 316 315 314 315 315 315 315 315 314 313 313 311 308 305 304 302 300 298 295 292 291 291 291 290 288 284 278 265 241 223 213 209 210 211 207 207
329 329 327 326 324 321 320 319 318 319 319 318 319 319 319 319 318 317 315 312 309 307 306 304 301 298 296 292 290 290 290 288 286 281 272 258 234 218 210 206 205 202 202 201
331 329 327 325 323 322 322 322 323 324 323 323 323 322 321 320 319 317 315 313 310 308 306 303 300 298 295 293 291 289 287 285 281 274 264 245 225 214 207 204 200 197 197 197
330 328 327 326 326 327 327 327 328 328 327 326 326 325 323 321 319 317 315 313 311 309 306 303 300 297 294 292 290 287 284 281 273 265 252 229 215 207 202 199 196 195 193 194
330 330 329 330 330 331 332 332 332 332 331 329 328 327 324 322 321 319 317 315 312 311 308 305 301 297 293 290 287 284 281 273 263 252 235 216 207 201 196 195 194 190 188 191
333 333 333 333 334 335 335 335 335 335 333 331 329 328 325 323 322 321 319 316 314 312 310 307 303 298 292 287 284 279 272 264 251 236 217 206 200 195 191 191 189 186 186 188
335 335 335 336 336 337 337 337 336 335 333 331 329 328 326 325 324 323 321 319 317 315 313 310 306 300 292 283 277 270 259 248 233 214 202 198 193 190 188 187 187 185 185 186
336 336 337 338 338 338 337 337 337 335 333 332 330 329 328 327 326 325 324 322 320 318 316 314 310 303 292 279 266 254 240 222 207 195 190 188 186 185 182 182 183 183 183 184
337 338 339 339 339 338 337 337 336 335 334 333 332 332 332 331 329 328 327 326 324 320 318 316 312 302 290 271 249 230 213 196 189 184 180 181 181 180 180 181 181 181 182 183
339 339 340 340 340 338 337 337 336 336 336 336 336 336 336 336 335 334 332 331 330 326 324 322 318 309 289 251 220 199 185 178 177 175 174 176 177 177 177 177 177 179 181 182
340 340 341 341 341 339 338 337 338 338 339 339 339 339 339 339 340 341 342 341 340 339 340 339 336 328 290 188 176 170 168 168 169 169 170 171 172 173 173 174 174 177 179 181
340 341 342 342 342 341 340 340 340 340 341 341 341 342 343 344 346 349 351 352 355 356 1 8 20 47 108 137 146 152 156 159 161 162 164 166 168 170 171 172 174 176 179 182
341 342 343 343 343 342 341 341 342 343 344 345 346 347 350 352 355 357 360 4 10 16 23 33 50 74 102 123 135 142 147 151 153 156 160 164 166 168 171 172 174 177 180 182
341 342 343 343 343 342 343 344 345 346 348 350 352 354 356 358 1 6 9 16 21 29 39 52 70 86 104 118 128 135 140 145 149 153 157 160 165 168 171 173 176 180 182 184
342 343 344 344 344 344 345 346 347 349 352 355 357 359 2 4 6 12 18 25 32 41 52 64 79 93 105 116 124 130 136 141 146 151 156 160 165 169 172 175 177 180 183 187
342 343 344 345 344 344 345 347 349 351 354 358 0 3 5 8 12 18 24 32 40 46 57 72 87 99 108 116 123 128 132 138 144 150 155 160 165 170 174 177 179 183 187 189